OBJECT M

Satellite information

Favourite Embed

Satellite Type and Status

UNKNOWNIN ORBIT

Key statistics

Satellite OBJECT M at a glance.

Uptime

3074

Days in orbit

Revolutions

≈ 15.1

Per day

Orbit

SSO

Sun Synchronous Orbit

Inclination

97.4

Latest

Satellite identification and parameters

Extended collection of information and parameters for OBJECT M.

Object identification

Identified? True

Debris? False

Object name: OBJECT M

International designator: 2017-042M

Object number (NORAD): 42836

Object ID (CCSDS): 42836

Country: TO BE DETERMINED/UNKNOWN (TBD)

Current information (Y/N): Y

RCS size: MEDIUM

Orbital parameters

Period: 95.567 minutes

Inclination: 97.4044 deg

SMA: 6924.113 km

Apoapsis: 549.498 km

Periapsis: 542.458 km

RAAN: 149.541 deg

Eccentricy: 0.0005084

Argument of periapsis: 36.9579 deg

Mean anomaly: 323.1998 deg

Mean motion: 15.06803177 rev/day

Mean motion (dot): 0.00009501 rev/day2

B* drag term: 0.0006413 1/REarth

Two-line elements (TLE)

Creation date: Dec. 12, 2025, 7:16 a.m.

Reference frame: TEME

Reference center: EARTH

Epoch: Dec. 11, 2025, 11:41 p.m. UTC

TLE line 0: 0 OBJECT M

TLE line 1: 1 42836U 17042M 25345.98733505 .00009501 00000-0 64130-3 0 9998

TLE line 2: 2 42836 97.4044 149.5410 0005084 36.9579 323.1998 15.06803177458801

Live tracking on map

Real-time ground track for satellite OBJECT M.

In-orbit conjunctions

There are no conjunctions computed for OBJECT M, at the moment. Check back to stay up to date, as we update our databases every day.

Go to all conjunctions

Associated space launch

Kanopus-V-IK is a small Russian remote sensing satellite for monitoring wildfires. Weighing about 473 kg, it is intended for 5 years of operation in a 510 km sun-synchronous orbit.

OBJECT M was lifted into orbit during the mission ‘Soyuz-2.1a/Fregat | Kanopus-V-IK’, on board a Soyuz 2.1a/Fregat-M space rocket.

The launch took place on July 14, 2017, 6:36 a.m. from 31/6.

For more information about the launch, click the button.

Launch to space Soyuz-2.1a/Fregat | Kanopus-V-IK
Soyuz-2.1a/Fregat | Kanopus-V-IK

Agency: N/A

Status: Launch was a Partial Failure

Launch date: July 14, 2017, 6:36 a.m. UTC

Rocket: Soyuz 2.1a/Fregat-M

Launch pad: 31/6

Location: Baikonur Cosmodrome, Republic of Kazakhstan

...

Latest news about this satellite

There are no fresh news available about this satellite. Check back as we update our databases every day.


Newsletter sign-up

Weekly statistics, charts and insights to help you stay on top of the space industry.